📊 Raw Sensor Data

Showing records 34276 to 34300 of 84,840 total

ID Distance (ft) Battery V Battery A Int Temp (°F) Int Humid (%) Ext Temp (°F) Solar V RSSI SNR Time Stamp
50577 15.8 3.84 0 80 41 79 5.10 -72 7 08/29/2025 10:45 AM
50576 15.8 3.83 0 78 41 80 5.10 -71 7 08/29/2025 10:30 AM
50575 15.7 3.83 0 77 41 79 5.10 -70 8 08/29/2025 10:15 AM
50574 15.8 3.96 0 75 41 78 5.10 -71 8 08/29/2025 10:00 AM
50573 15.8 3.87 0 73 41 78 5.10 -72 7 08/29/2025 09:45 AM
50572 15.7 3.91 9 71 42 76 5.10 -72 7 08/29/2025 09:30 AM
50571 15.7 3.87 0 70 41 73 5.10 -71 7 08/29/2025 09:15 AM
50570 15.7 3.87 0 69 41 72 5.10 -72 7 08/29/2025 09:00 AM
50569 15.7 3.87 10 67 41 72 5.10 -71 8 08/29/2025 08:45 AM
50568 15.7 4.13 111 65 41 71 4.50 -72 8 08/29/2025 08:30 AM
50567 15.6 4.02 97 63 41 69 4.50 -72 7 08/29/2025 08:15 AM
50566 15.6 3.93 49 61 42 67 4.50 -72 7 08/29/2025 08:00 AM
50565 15.5 3.95 23 59 42 65 4.50 -72 8 08/29/2025 07:45 AM
50564 15.5 3.85 16 58 42 63 4.50 -73 8 08/29/2025 07:30 AM
50563 15.4 3.87 8 57 43 60 4.60 -73 7 08/29/2025 07:15 AM
50562 15.4 3.85 0 56 43 59 4.50 -73 8 08/29/2025 07:00 AM
50561 15.4 3.84 -9 56 43 58 4.50 -73 8 08/29/2025 06:45 AM
50560 15.4 3.79 -9 56 43 58 1.50 -73 8 08/29/2025 06:30 AM
50559 15.4 3.79 -5 55 43 57 0.30 -73 8 08/29/2025 06:15 AM
50558 15.4 3.79 -5 54 43 57 0.00 -73 8 08/29/2025 06:00 AM
50557 15.4 3.79 -5 54 44 55 0.00 -72 8 08/29/2025 05:45 AM
50556 15.4 3.79 -5 54 43 55 0.00 -73 8 08/29/2025 05:30 AM
50555 15.4 3.79 -5 54 43 55 0.00 -72 7 08/29/2025 05:15 AM
50554 15.4 3.79 -5 54 44 55 0.00 -72 8 08/29/2025 05:00 AM
50553 15.4 3.79 -5 54 44 56 0.00 -73 8 08/29/2025 04:45 AM